Stations météo

Publicité
Le Havre/Octeville, France (7046): Température de l'air & dewpoint: 15.07.2019 16:00:00 - 21.07.2019 16:00:00 (CEST)Le Havre/Octeville, France (7046): Vitesse du vent & gusts: 15.07.2019 16:00:00 - 21.07.2019 16:00:00 (CEST)Le Havre/Octeville, France (7046): Direction du vent: 15.07.2019 16:00:00 - 21.07.2019 16:00:00 (CEST)Le Havre/Octeville, France (7046): reduced air pressure: 15.07.2019 16:00:00 - 21.07.2019 16:00:00 (CEST)Le Havre/Octeville, France (7046): visibility: 15.07.2019 16:00:00 - 21.07.2019 16:00:00 (CEST)Le Havre/Octeville, France (7046): Quantités de précipitations: 15.07.2019 16:00:00 - 21.07.2019 16:00:00 (CEST)
Date & Time tt [°C] td [°C] ff [km/h] ff [knt] fx [km/h] fx [knt] dd ppp [hPa] vv [km] rr [mm]
21.07.2019 16:00:00 21,2 9,4 12 6 21 11 N 1023,5 60 0,0
21.07.2019 15:00:00 20,4 9,9 10 6 16 8 NNW 1023,5 60 0,0
21.07.2019 14:00:00 20,2 10,6 9 5 18 10 WNW 1023,6 60 0,0
21.07.2019 13:00:00 19,4 13,1 11 6 17 9 W 1023,5 57 0,0
21.07.2019 12:00:00 19,0 13,6 10 5 18 10 WNW 1023,4 50 0,0
21.07.2019 11:00:00 18,6 13,7 11 6 21 11 WNW 1023,1 60 0,0
21.07.2019 10:00:00 18,6 12,8 11 6 21 11 WNW 1022,6 10 0,0
21.07.2019 09:00:00 17,9 13,4 14 8 23 12 WNW 1022,0 43 0,0
21.07.2019 08:00:00 17,0 13,7 13 7 26 14 WNW 1021,5 54 0,0
21.07.2019 07:00:00 16,2 14,0 15 8 23 12 W 1020,7 41 0,0
21.07.2019 06:00:00 16,3 13,8 14 8 27 15 W 1020,2 44 0,0
21.07.2019 05:00:00 16,3 13,6 18 10 28 15 W 1019,9 48 0,0
21.07.2019 04:00:00 16,1 13,8 18 10 27 15 W 1019,6 43 0,0
21.07.2019 03:00:00 16,3 13,0 18 10 33 18 W 1019,1 52 0,0
21.07.2019 02:00:00 16,6 12,3 24 13 33 18 W 1019,0 56 0,0
21.07.2019 01:00:00 17,0 12,7 18 10 28 15 W 1018,5 58 0,0
21.07.2019 00:00:00 17,0 12,7 19 10 26 14 W 1018,2 46 0,0
20.07.2019 23:00:00 17,4 13,7 13 7 23 12 WNW 1017,6 53 0,0
20.07.2019 22:00:00 17,6 14,7 14 7 22 12 W 1016,7 44 0,0
20.07.2019 21:00:00 18,2 16,0 10 5 23 12 NW 1015,9 19 0,0
20.07.2019 20:00:00 20,1 15,1 18 10 30 16 NW 1014,9 46 0,0
20.07.2019 19:00:00 20,9 15,2 13 7 26 14 WNW 1014,4 60 0,0
20.07.2019 18:00:00 21,0 15,8 13 7 24 13 NW 1014,1 19 0,0
20.07.2019 17:00:00 21,3 15,8 16 9 31 17 WNW 1013,7 50 0,0
20.07.2019 16:00:00 21,5 15,1 19 10 29 16 WNW 1013,2 36 0,0
20.07.2019 15:00:00 21,7 16,0 18 10 31 17 W 1013,0 20 0,0
20.07.2019 14:00:00 20,7 16,5 19 10 32 17 W 1012,6 20 0,0
20.07.2019 13:00:00 19,3 16,9 21 11 34 18 W 1012,1 41 0,0
20.07.2019 12:00:00 18,5 17,7 24 13 37 20 W 1011,3 20 5,1
20.07.2019 11:00:00 17,5 15,3 24 13 42 23 W 1010,3 3,2 1,2
20.07.2019 10:00:00 20,2 16,4 18 10 35 19 SSW 1009,9 45 0,0
20.07.2019 09:00:00 19,7 16,2 19 11 31 17 SSW 1009,7 47 0,0
20.07.2019 08:00:00 19,5 15,8 17 9 32 17 SSW 1009,4 44 0,0
20.07.2019 07:00:00 19,4 15,7 15 8 25 13 SSW 1009,4 52 0,0
20.07.2019 06:00:00 19,6 16,6 12 7 19 10 SSW 1009,2 41 0,0
20.07.2019 05:00:00 19,6 16,4 9 5 21 11 SW 1009,5 55 0,0
20.07.2019 04:00:00 19,7 16,9 15 8 29 16 WSW 1009,9 51 0,0
20.07.2019 03:00:00 20,7 16,5 11 6 17 9 WSW 1009,9 47 0,0
20.07.2019 02:00:00 21,7 16,0 9 5 16 8 SW 1010,0 57 0,0
20.07.2019 01:00:00 22,4 15,7 10 5 15 8 SSW 1010,4 60 0,0
20.07.2019 00:00:00 22,6 15,9 5 3 8 4 S 1010,4 50 0,0
19.07.2019 23:00:00 22,8 15,9 4 2 9 5 S 1010,8 59 0,0
19.07.2019 22:00:00 23,2 15,5 5 3 13 7 SSE 1011,3 60 0,0
19.07.2019 21:00:00 23,5 15,3 7 4 13 7 S 1011,6 60 0,0
19.07.2019 20:00:00 23,2 15,0 8 4 17 9 S 1011,8 60 0,0
19.07.2019 19:00:00 23,3 15,4 9 5 14 8 WSW 1012,4 60 0,0
19.07.2019 18:00:00 21,8 15,4 7 4 19 10 WNW 1013,1 60 0,0
19.07.2019 17:00:00 22,5 15,1 9 5 23 12 W 1013,3 43 0,0
19.07.2019 16:00:00 23,5 13,9 12 6 25 14 WSW 1013,5 47 0,0
19.07.2019 15:00:00 23,2 12,8 20 11 29 16 SW 1013,6 46 0,0
19.07.2019 14:00:00 22,6 12,8 17 9 29 16 SW 1014,0 36 0,0
19.07.2019 13:00:00 22,1 13,2 20 11 29 16 SW 1014,5 39 0,0
19.07.2019 12:00:00 20,1 13,3 15 8 28 15 SSW 1014,7 42 0,0
19.07.2019 11:00:00 19,0 14,0 15 8 24 13 SW 1015,2 42 0,0
19.07.2019 10:00:00 17,3 14,2 16 8 26 14 SW 1015,4 46 0,0
19.07.2019 09:00:00 17,2 14,1 14 7 21 12 SW 1015,3 49 0,0
19.07.2019 08:00:00 16,6 13,3 12 7 19 10 WSW 1015,3 58 0,0
19.07.2019 07:00:00 16,1 14,5 14 8 22 12 WSW 1015,0 40 0,0
19.07.2019 06:00:00 16,0 14,2 15 8 22 12 WSW 1014,9 40 0,0
19.07.2019 05:00:00 16,0 13,7 14 8 22 12 W 1014,8 41 0,0
19.07.2019 04:00:00 16,5 13,6 14 8 25 14 W 1015,1 58 0,0
19.07.2019 03:00:00 16,9 12,4 17 9 24 13 W 1015,2 60 0,0
19.07.2019 02:00:00 17,0 12,5 16 9 26 14 W 1015,2 60 0,0
19.07.2019 01:00:00 16,9 13,2 16 9 24 13 WNW 1015,1 51 0,0
19.07.2019 00:00:00 16,8 13,3 14 7 22 12 WNW 1014,9 50 0,0
18.07.2019 23:00:00 16,8 13,3 14 7 25 13 NW 1014,9 48 0,0
18.07.2019 22:00:00 17,1 13,0 15 8 25 14 WNW 1014,6 52 0,0
18.07.2019 21:00:00 17,2 12,5 16 9 26 14 NW 1014,3 58 0,0
18.07.2019 20:00:00 18,0 13,7 18 10 29 16 NW 1014,0 53 0,0
18.07.2019 19:00:00 17,9 14,8 16 9 22 12 NW 1013,8 50 0,0
18.07.2019 18:00:00 18,4 14,3 11 6 22 12 NW 1013,8 57 0,0
18.07.2019 17:00:00 18,4 14,1 13 7 24 13 NW 1013,7 58 0,0
18.07.2019 16:00:00 20,3 15,3 16 9 25 13 WSW 1013,5 50 0,0
18.07.2019 15:00:00 18,9 15,9 16 9 33 18 WSW 1013,7 47 0,0
18.07.2019 14:00:00 19,6 15,9 24 13 36 19 WSW 1013,4 60 0,0
18.07.2019 13:00:00 17,7 15,9 16 8 31 17 SW 1013,8 20 0,0
18.07.2019 12:00:00 17,4 14,9 20 11 31 17 SW 1013,5 14 0,0
18.07.2019 11:00:00 17,4 14,3 20 11 31 17 SW 1013,4 45 0,0
18.07.2019 10:00:00 16,7 13,8 21 11 34 18 SW 1013,4 31 0,0
18.07.2019 09:00:00 16,6 13,9 18 10 29 16 SW 1013,3 29 0,0
18.07.2019 08:00:00 16,5 14,3 17 9 27 14 SW 1013,1 16 0,0
18.07.2019 07:00:00 15,8 14,3 17 9 25 14 WSW 1013,3 19 0,0
18.07.2019 06:00:00 15,9 14,4 16 8 23 12 WSW 1013,3 24 0,0
18.07.2019 05:00:00 15,8 14,3 16 9 27 15 WSW 1013,3 21 0,0
18.07.2019 04:00:00 16,2 14,7 19 10 27 14 W 1013,6 24 0,0
18.07.2019 03:00:00 15,8 13,8 15 8 25 14 WSW 1014,0 23 0,0
18.07.2019 02:00:00 16,2 13,5 18 10 29 16 W 1014,4 26 0,0
18.07.2019 01:00:00 16,6 13,9 20 11 28 15 W 1014,6 26 0,0
18.07.2019 00:00:00 16,0 14,7 11 6 20 11 WNW 1014,6 18 0,0
17.07.2019 23:00:00 16,0 13,5 13 7 18 10 NW 1014,8 33 0,0
17.07.2019 22:00:00 16,1 12,1 6 4 14 7 NW 1014,4 38 0,0
17.07.2019 21:00:00 16,9 12,0 11 6 21 11 NNW 1014,2 39 0,0
17.07.2019 20:00:00 17,5 11,5 14 8 24 13 N 1014,3 43 0,0
17.07.2019 19:00:00 18,8 9,6 15 8 20 11 N 1014,4 51 0,0
17.07.2019 18:00:00 20,1 10,5 9 5 18 10 N 1014,5 60 0,0
17.07.2019 17:00:00 20,7 9,0 13 7 19 10 NNW 1014,9 40 0,0
17.07.2019 16:00:00 19,1 11,1 12 7 21 11 NNW 1015,4 20 0,0
17.07.2019 15:00:00 19,3 11,6 14 7 21 12 NNW 1015,7 52 0,0
17.07.2019 14:00:00 18,7 12,4 14 7 22 12 NW 1016,0 55 0,0
17.07.2019 13:00:00 18,2 13,5 14 7 20 11 WNW 1016,3 19 0,0
17.07.2019 12:00:00 18,3 13,4 14 7 22 12 W 1016,3 20 0,0
17.07.2019 11:00:00 18,4 14,9 13 7 18 10 W 1016,2 19 0,0
17.07.2019 10:00:00 17,9 14,2 11 6 14 8 W 1016,2 20 0,0
17.07.2019 09:00:00 17,5 13,2 0 0 6 3 N 1016,0 29 0,0
17.07.2019 08:00:00 14,1 13,8 0 0 3 2 N 1016,3 11 0,0
17.07.2019 07:00:00 12,0 11,5 0 0 5 3 N 1016,3 0,2 0,2
17.07.2019 06:00:00 12,8 12,3 0 0 5 3 N 1016,6 0,1 0,0
17.07.2019 05:00:00 13,3 12,8 4 2 8 4 NNE 1016,8 2,6 0,0
17.07.2019 04:00:00 13,4 12,9 4 2 8 4 N 1017,1 0,3 0,0
17.07.2019 03:00:00 13,6 13,0 4 2 5 3 N 1017,6 0,7 0,0
17.07.2019 02:00:00 13,4 12,6 4 2 5 3 N 1017,9 2,8 0,0
17.07.2019 01:00:00 14,3 13,3 0 0 7 4 N 1017,9 9 0,0
17.07.2019 00:00:00 14,7 13,6 6 3 13 7 N 1018,0 17 0,0
16.07.2019 23:00:00 16,2 10,1 5 3 11 6 NW 1018,0 50 0,0
16.07.2019 22:00:00 18,6 9,9 0 0 8 4 N 1017,7 60 0,0
16.07.2019 21:00:00 20,2 9,1 6 3 17 9 NE 1017,6 60 0,0
16.07.2019 20:00:00 20,6 8,9 14 8 21 12 NNE 1017,8 54 0,0
16.07.2019 19:00:00 20,4 9,3 16 9 24 13 NNE 1017,9 60 0,0
16.07.2019 18:00:00 21,0 11,1 21 11 25 13 N 1018,1 53 0,0
16.07.2019 17:00:00 23,4 11,1 9 5 22 12 NE 1018,4 46 0,0
16.07.2019 16:00:00 20,6 11,8 17 9 26 14 N 1019,1 41 0,0
16.07.2019 15:00:00 20,2 12,4 19 10 27 15 N 1019,3 38 0,0
16.07.2019 14:00:00 19,1 12,1 21 11 27 15 N 1019,3 19 0,0
16.07.2019 13:00:00 18,4 12,4 18 10 24 13 N 1019,5 19 0,0
16.07.2019 12:00:00 18,6 12,1 13 7 19 10 N 1019,7 20 0,0
16.07.2019 11:00:00 17,2 11,5 9 5 14 7 NNW 1020,2 55 0,0
16.07.2019 10:00:00 17,5 11,1 2 1 8 4 E 1020,5 34 0,0
16.07.2019 09:00:00 14,7 11,3 7 4 11 6 E 1020,6 28 0,0
16.07.2019 08:00:00 12,9 10,6 7 4 13 7 E 1020,4 19 0,0
16.07.2019 07:00:00 11,4 9,8 7 4 11 6 E 1020,3 18 0,0
16.07.2019 06:00:00 10,8 9,2 7 4 10 5 ESE 1020,2 17 0,0
16.07.2019 05:00:00 11,4 9,3 8 4 12 6 ESE 1020,4 20 0,0
16.07.2019 04:00:00 12,3 9,8 10 5 14 8 ESE 1020,6 26 0,0
16.07.2019 03:00:00 12,4 10,1 9 5 16 9 E 1020,9 29 0,0
16.07.2019 02:00:00 12,8 10,7 11 6 17 9 E 1021,1 24 0,0
16.07.2019 01:00:00 13,3 11,5 11 6 17 9 E 1021,2 34 0,0
16.07.2019 00:00:00 13,7 11,6 10 6 22 12 E 1021,3 42 0,0
15.07.2019 23:00:00 14,2 11,0 13 7 20 11 E 1021,1 59 0,0
15.07.2019 22:00:00 15,3 10,5 14 8 23 13 ENE 1020,9 55 0,0
15.07.2019 21:00:00 17,0 9,9 17 9 31 17 ENE 1020,7 59 0,0
15.07.2019 20:00:00 17,9 10,5 20 11 29 16 NE 1020,7 53 0,0
15.07.2019 19:00:00 18,4 10,2 19 10 37 20 NE 1020,7 50 0,0
15.07.2019 18:00:00 18,8 10,4 20 11 32 17 NE 1020,9 54 0,0
15.07.2019 17:00:00 18,4 10,5 21 11 32 17 NE 1021,4 54 0,0
15.07.2019 16:00:00 19,5 10,5 17 9 29 16 NE 1021,4 20 0,0

tt = Température de l'air
td = dewpoint
ff = Vitesse du vent
fx = gusts
dd = Direction du vent
ppp = reduced air pressure
vv = visibility
rr = Quantités de précipitations

stations d'obs. à proximité